Fernandina Beach, FL

11:15 AM EST on December 09, 2019 (GMT -0500)
Fernandina Beach

Weather History for KFHB - October, 2019

Change the Weather History Date:

Sunday, October 27, 2019

  Actual Average (KNRB) Record (KNRB)
Temperature  
Mean Temperature 80 °F -  
Max Temperature 85 °F 75 °F 87 °F (2010)
Min Temperature 74 °F 62 °F 48 °F (2005)
Cooling Degree Days 14    
Growing Degree Days 30 (Base 50)    
Moisture  
Dew Point 75 °F    
Average Humidity 91    
Maximum Humidity 100    
Minimum Humidity 72    
Precipitation  
Precipitation 0.04 in - - ()
Sea Level Pressure  
Sea Level Pressure 29.95 in    
Wind  
Wind Speed 9 mph (SSW)    
Max Wind Speed 15 mph    
Max Gust Speed 18 mph    
Visibility 10 miles    
Events Rain , Thunderstorm    
Averages and records for this station are not official NWS values.
T = Trace of Precipitation, MM = Missing Value Source: NWS Daily Summary

Daily Weather History Graph

Daily Weather History Graph

Search for Another Location

Airport or City:

Astronomy

Oct. 27, 2019 Rise Set
Actual Time 7:36 AM EDT 6:42 PM EDT
Civil Twilight 7:11 AM EDT 7:07 PM EDT
Nautical Twilight 6:43 AM EDT 7:35 PM EDT
Astronomical Twilight 6:15 AM EDT 8:03 PM EDT
Moon 6:51 AM EDT (10/27) 6:46 PM EDT (10/27)
Length of Visible Light 11h 55m
Length of Day
11h 05m
Waning Crescent, 0% of the Moon is Illuminated
Oct 27
Waning Crescent
Oct 27
New
Nov 4
First Quarter
Nov 12
Full
Nov 19
Last Quarter

Hourly Weather History & Observations

Time (EDT) Temp. Heat Index Dew Point Humidity Pressure Visibility Wind Dir Wind Speed Gust Speed Precip Events Conditions
12:15 AM 76.3 °F - 74.7 °F 95% 29.94 in 10.0 mi South 8.1 mph - N/A   Scattered Clouds
12:35 AM 76.1 °F - 74.5 °F 95% 29.94 in 10.0 mi South 9.2 mph - N/A   Clear
12:55 AM 75.9 °F - 74.3 °F 95% 29.94 in 10.0 mi South 9.2 mph - N/A   Clear
1:15 AM 75.7 °F - 74.1 °F 95% 29.93 in 10.0 mi South 8.1 mph - N/A   Clear
1:55 AM 75.4 °F - 73.9 °F 95% 29.92 in 10.0 mi South 6.9 mph - N/A   Clear
2:15 AM 75.0 °F - 73.6 °F 95% 29.92 in 10.0 mi South 8.1 mph - N/A   Clear
2:35 AM 74.8 °F - 73.6 °F 96% 29.92 in 10.0 mi South 8.1 mph - N/A   Clear
2:55 AM 74.7 °F - 73.4 °F 96% 29.91 in 10.0 mi South 8.1 mph - N/A   Clear
3:15 AM 74.7 °F - 73.6 °F 96% 29.91 in 10.0 mi South 8.1 mph - N/A   Clear
3:35 AM 74.5 °F - 73.6 °F 97% 29.90 in 10.0 mi SSW 6.9 mph - N/A   Clear
3:55 AM 74.3 °F - 73.6 °F 98% 29.90 in 10.0 mi South 6.9 mph - N/A   Clear
4:15 AM 74.3 °F - 73.6 °F 98% 29.90 in 10.0 mi SSW 8.1 mph - N/A   Clear
4:35 AM 74.3 °F - 73.6 °F 98% 29.91 in 10.0 mi SSW 6.9 mph - N/A   Clear
4:55 AM 74.3 °F - 73.8 °F 98% 29.91 in 10.0 mi SSW 6.9 mph - N/A   Clear
5:15 AM 74.3 °F - 73.8 °F 98% 29.91 in 10.0 mi South 6.9 mph - N/A   Clear
5:35 AM 74.5 °F - 73.9 °F 98% 29.91 in 10.0 mi SSW 9.2 mph - N/A   Clear
5:55 AM 74.5 °F - 73.9 °F 98% 29.91 in 10.0 mi SSW 10.4 mph - N/A   Scattered Clouds
6:15 AM 74.5 °F - 73.9 °F 98% 29.92 in 10.0 mi SSW 9.2 mph - N/A Thunderstorm Mostly Cloudy
6:35 AM 74.8 °F - 74.3 °F 98% 29.93 in 10.0 mi SW 6.9 mph - N/A   Overcast
6:55 AM 75.2 °F - 74.5 °F 98% 29.93 in 10.0 mi SW 9.2 mph - N/A   Overcast
7:55 AM 75.7 °F - 74.8 °F 97% 29.94 in 10.0 mi SW 11.5 mph - N/A Thunderstorm Overcast
8:15 AM 75.9 °F - 74.7 °F 96% 29.94 in 10.0 mi SSW 12.7 mph - N/A Thunderstorm Overcast
8:35 AM 76.3 °F - 74.8 °F 95% 29.96 in 10.0 mi SW 11.5 mph - N/A   Overcast
8:55 AM 76.6 °F - 75.0 °F 95% 29.97 in 10.0 mi SW 9.2 mph - N/A   Overcast
9:15 AM 77.4 °F - 75.4 °F 94% 29.97 in 10.0 mi SSW 10.4 mph - N/A   Overcast
9:35 AM 79.0 °F - 75.7 °F 90% 29.97 in 10.0 mi SSW 11.5 mph - N/A   Overcast
9:55 AM 78.8 °F - 75.4 °F 89% 29.97 in 10.0 mi SSW 12.7 mph - N/A   Overcast
10:15 AM 79.5 °F - 75.0 °F 86% 29.97 in 10.0 mi SSW 13.8 mph - N/A Thunderstorm Mostly Cloudy
10:35 AM 79.0 °F - 75.0 °F 88% 29.97 in 10.0 mi SSW 13.8 mph - N/A   Scattered Clouds
10:55 AM 81.5 °F 88.0 °F 75.6 °F 82% 29.98 in 10.0 mi SSW 15.0 mph - N/A   Scattered Clouds
11:15 AM 81.9 °F 88.7 °F 75.4 °F 81% 29.98 in 10.0 mi SW 13.8 mph - N/A   Scattered Clouds
11:35 AM 81.0 °F 86.9 °F 75.2 °F 83% 29.99 in 10.0 mi SW 12.7 mph - N/A   Scattered Clouds
11:55 AM 80.6 °F 86.4 °F 75.6 °F 85% 29.99 in 10.0 mi SSW 11.5 mph - N/A   Scattered Clouds
12:15 PM 80.6 °F 86.4 °F 75.6 °F 85% 29.98 in 10.0 mi SSW 11.5 mph - N/A   Mostly Cloudy
12:35 PM 80.6 °F 86.6 °F 75.9 °F 86% 29.98 in 10.0 mi SW 9.2 mph - N/A   Overcast
12:55 PM 81.7 °F 88.7 °F 76.1 °F 83% 29.97 in 10.0 mi SW 11.5 mph - N/A   Scattered Clouds
1:15 PM 82.6 °F 90.5 °F 76.3 °F 81% 29.96 in 10.0 mi SW 12.7 mph - N/A   Mostly Cloudy
1:35 PM 82.8 °F 90.7 °F 75.9 °F 80% 29.95 in 10.0 mi SW 11.5 mph - N/A   Overcast
1:55 PM 81.7 °F 88.7 °F 75.9 °F 83% 29.95 in 10.0 mi SW 13.8 mph - N/A   Overcast
2:15 PM 81.7 °F 89.0 °F 76.3 °F 84% 29.95 in 10.0 mi SW 13.8 mph - N/A   Mostly Cloudy
2:35 PM 83.5 °F 92.6 °F 76.8 °F 80% 29.94 in 10.0 mi WSW 11.5 mph - N/A   Mostly Cloudy
2:55 PM 84.2 °F 93.8 °F 76.6 °F 78% 29.94 in 10.0 mi SW 12.7 mph - N/A   Mostly Cloudy
3:15 PM 82.4 °F 90.1 °F 75.9 °F 81% 29.94 in 10.0 mi SW 12.7 mph - N/A   Mostly Cloudy
3:35 PM 83.7 °F 92.7 °F 76.6 °F 79% 29.94 in 10.0 mi SSW 11.5 mph - N/A   Overcast
3:55 PM 84.0 °F 93.3 °F 76.6 °F 78% 29.93 in 10.0 mi SW 10.4 mph - N/A   Mostly Cloudy
4:15 PM 84.6 °F 93.5 °F 75.9 °F 75% 29.93 in 10.0 mi SSW 12.7 mph 18.4 mph N/A   Mostly Cloudy
4:35 PM 85.8 °F 95.5 °F 75.7 °F 72% 29.93 in 10.0 mi SW 12.7 mph - N/A   Scattered Clouds
4:55 PM 83.7 °F 91.7 °F 75.2 °F 76% 29.93 in 10.0 mi SW 11.5 mph - N/A   Scattered Clouds
5:15 PM 82.8 °F 90.4 °F 75.6 °F 79% 29.94 in 10.0 mi WSW 5.8 mph - N/A   Mostly Cloudy
5:35 PM 79.5 °F - 77.4 °F 93% 29.94 in 7.0 mi West 6.9 mph - 0.04 in Rain Light Rain
5:55 PM 79.9 °F - 77.2 °F 91% 29.94 in 10.0 mi SW 5.8 mph - 0.04 in   Mostly Cloudy
6:15 PM 79.3 °F - 77.0 °F 93% 29.95 in 10.0 mi SSW 3.5 mph - N/A   Mostly Cloudy
6:35 PM 79.3 °F - 77.0 °F 93% 29.95 in 10.0 mi WSW 5.8 mph - N/A   Mostly Cloudy
6:55 PM 78.4 °F - 76.3 °F 93% 29.96 in 10.0 mi SW 5.8 mph - N/A   Mostly Cloudy
7:15 PM 77.9 °F - 76.6 °F 96% 29.96 in 10.0 mi South 4.6 mph - N/A   Mostly Cloudy
7:35 PM 77.9 °F - 76.6 °F 96% 29.97 in 10.0 mi SSW 6.9 mph - N/A   Mostly Cloudy
7:55 PM 77.2 °F - 76.1 °F 96% 29.97 in 10.0 mi SSW 4.6 mph - N/A   Scattered Clouds
8:15 PM 76.5 °F - 75.7 °F 98% 29.97 in 10.0 mi South 4.6 mph - N/A   Clear
8:35 PM 76.6 °F - 75.7 °F 97% 29.98 in 10.0 mi SSW 4.6 mph - N/A   Clear
8:55 PM 76.1 °F - 75.6 °F 98% 29.98 in 10.0 mi SSW 5.8 mph - N/A   Clear
9:15 PM 76.6 °F - 75.7 °F 97% 29.98 in 10.0 mi SSW 5.8 mph - N/A   Clear
9:35 PM 76.5 °F - 75.6 °F 97% 29.99 in 10.0 mi SSW 3.5 mph - N/A   Clear
9:55 PM 76.1 °F - 75.4 °F 98% 29.99 in 10.0 mi Calm Calm - N/A   Clear
10:15 PM 75.9 °F - 75.6 °F 99% 30.00 in 10.0 mi SSW 3.5 mph - N/A   Clear
10:35 PM 75.6 °F - 75.4 °F 99% 30.00 in 10.0 mi South 3.5 mph - N/A   Clear
10:55 PM 75.6 °F - 75.2 °F 99% 30.00 in 10.0 mi SSW 3.5 mph - N/A   Clear
11:15 PM 75.2 °F - 75.0 °F 99% 30.00 in 10.0 mi SSW 3.5 mph - N/A   Clear
11:35 PM 75.2 °F - 75.2 °F 100% 30.00 in 5.0 mi SSW 4.6 mph - N/A   Clear
11:55 PM 74.3 °F - - N/A% 30.00 in 5.0 mi Calm Calm - N/A   Haze